ISS (ZARYA) 1 25544U 98067A 26236.43525466 .00008197 00000+0 15348-3 0 9992 2 25544 51.6332 322.3014 0007699 78.6726 281.5127 15.49604681582335 POISK 1 36086U 09060A 26236.43525466 .00008197 00000+0 15348-3 0 9990 2 36086 51.6332 322.3014 0007699 78.6726 281.5127 15.49604681582732 CSS (TIANHE) 1 48274U 21035A 26236.32435285 .00015463 00000+0 19530-3 0 9996 2 48274 41.4682 268.3876 0001589 252.2897 107.7768 15.59217005303805 ISS (NAUKA) 1 49044U 21066A 26236.43525466 .00008197 00000+0 15348-3 0 9998 2 49044 51.6332 322.3014 0007699 78.6726 281.5127 15.49604681582774 FREGAT DEB 1 49271U 11037PF 26236.16709290 .00015859 00000+0 24066-1 0 9994 2 49271 51.6365 157.3035 0925458 72.4613 297.5120 12.43721576233508 CSS (WENTIAN) 1 53239U 22085A 26236.32435285 .00015463 00000+0 19530-3 0 9999 2 53239 41.4682 268.3876 0001589 252.2897 107.7768 15.59217005288231 CSS (MENGTIAN) 1 54216U 22143A 26236.32435285 .00015463 00000+0 19530-3 0 9990 2 54216 41.4682 268.3876 0001589 252.2897 107.7768 15.59217005304269 HRC MONOBLOCK CAMERA 1 66052U 98067XR 26235.57429115 .00141453 00000+0 53727-3 0 9995 2 66052 51.6183 290.0785 0006469 17.5265 342.5961 15.86645422 48653 SZ-21 MODULE 1 66515U 25246C 26236.31455289 .00061530 00000+0 28245-3 0 9996 2 66515 41.4699 241.1012 0008445 153.4307 206.6974 15.82667718 44512 DUPLEX 1 66906U 98067XS 26236.56524362 .00040767 00000+0 36804-3 0 9996 2 66906 51.6265 302.8738 0003948 53.3033 306.8326 15.67707968 41364 KNACKSAT-2 1 67683U 98067XZ 26236.24854796 .00055032 00000+0 52166-3 0 9991 2 67683 51.6275 310.5364 0007305 79.2155 280.9663 15.66345021 30925 GXIBA-1 1 67685U 98067YB 26236.59743668 .00070649 00000+0 58647-3 0 9997 2 67685 51.6247 306.8406 0008031 76.0674 284.1216 15.69492763 31008 UITMSAT-2 1 67686U 98067YC 26236.57637610 .00129802 00000+0 76374-3 0 9998 2 67686 51.6244 302.9170 0007989 35.0113 325.1411 15.77271389 31051 LEOPARD 1 67687U 98067YD 26236.58451702 .00080046 00000+0 66560-3 0 9998 2 67687 51.6271 307.5386 0007594 43.5561 316.6035 15.69405237 30918 HMU-SAT2 1 67688U 98067YE 26236.61241219 .00097495 00000+0 68549-3 0 9998 2 67688 51.6255 304.6945 0007253 39.3948 320.7577 15.73318252 30950 CREW DRAGON 12 1 67796U 26031A 26236.43525466 .00008197 00000+0 15348-3 0 9999 2 67796 51.6332 322.3014 0007699 78.6726 281.5127 15.49604681582925 PROGRESS-MS 33 1 68319U 26058A 26236.43525466 .00008197 00000+0 15348-3 0 9990 2 68319 51.6332 322.3014 0007699 78.6726 281.5127 15.49604681582893 CYGNUS NG-24 1 68689U 26079A 26236.43525466 .00008197 00000+0 15348-3 0 9993 2 68689 51.6332 322.3014 0007699 78.6726 281.5127 15.49604681583041 PROGRESS-MS 34 1 68837U 26093A 26236.43525466 .00008197 00000+0 15348-3 0 9994 2 68837 51.6332 322.3014 0007699 78.6726 281.5127 15.49604681583080 TIANZHOU-10 1 69049U 26102A 26236.32435285 .00015463 00000+0 19530-3 0 9999 2 69049 41.4682 268.3876 0001589 252.2897 107.7768 15.59217005304203 SHENZHOU-23 (SZ-23) 1 69180U 26113A 26236.32435285 .00015463 00000+0 19530-3 0 9997 2 69180 41.4682 268.3876 0001589 252.2897 107.7768 15.59217005304085